{"data":{"norad_id":62862,"intl_designator":"2025-022J","name":"STARLINK-32864","alt_names":[],"object_type":"PAYLOAD","status":"ACTIVE","operator":null,"country":"US","launch_date":"2025-02-01","launch_site_code":"AFWTR","launch_vehicle":null,"mission":null,"orbit_class":"UNKNOWN","rcs_meters":null,"size_class":null,"mass_kg":null,"dimensions":null,"purposes":["comms"],"wikipedia_slug":null,"has_3d_model":false,"image_url":null,"decayed_at":null,"tle_current":{"epoch":"2026-09-21T10:05:55.226112Z","epoch_age_seconds":88680,"freshness":"FRESH","line1":"1 62862U 25022J   26264.42077808  .00017163  00000+0  51773-3 0  9994","line2":"2 62862  53.1604 297.1763 0000796  77.9650 282.1442 15.34412448 91915","mean_motion":15.34412448,"eccentricity":7.96e-5,"inclination_deg":53.1604,"raan_deg":297.1763,"arg_perigee_deg":77.965,"mean_anomaly_deg":282.1442,"bstar":0.00051773,"rev_number":9191,"period_min":93.846996736565,"perigee_km":462.12171443984,"apogee_km":463.21077031603,"semimajor_km":6840.8032423779,"source":"CELESTRAK","updated_at":"2026-09-22T09:00:49.677154Z"}}}